Lulea-Kallax, Sweden

4:42 PM CEST on September 18, 2018 (GMT +0200)
Kallax Air Base

Weather History for ESPA - September, 2018

Change the Weather History Date:

Tuesday, September 18, 2018

  Actual Average Record
Temperature  
Mean Temperature 48 °F -  
Max Temperature 57 °F - - ()
Min Temperature 39 °F - - ()
Degree Days  
Heating Degree Days 17    
Moisture  
Dew Point 39 °F    
Average Humidity 70    
Maximum Humidity 87    
Minimum Humidity 43    
Precipitation  
Precipitation 0.00 in - - ()
Sea Level Pressure  
Sea Level Pressure 29.61 in    
Wind  
Wind Speed 6 mph ()    
Max Wind Speed 11 mph    
Max Gust Speed -    
Visibility 6.2 miles    
Events      
T = Trace of Precipitation, MM = Missing Value Source: Averaged Metar Reports

Daily Weather History Graph

Daily Weather History Graph

Search for Another Location

Airport or City:

Astronomy

Sep. 18, 2018 Rise Set
Actual Time 6:00 AM CEST 6:48 PM CEST
Civil Twilight 5:09 AM CEST 7:39 PM CEST
Nautical Twilight 4:04 AM CEST 8:43 PM CEST
Astronomical Twilight 2:44 AM CEST 10:01 PM CEST
Moon 5:31 PM CEST 10:02 PM CEST
Length of Visible Light 14h 30m
Length of Day
12h 47m
Waxing Gibbous, 64% of the Moon is Illuminated
Today
Waxing Gibbous
Sep 25
Full
Oct 2
Last Quarter
Oct 9
New
Oct 16
First Quarter

Hourly Weather History & Observations

Time (CEST) Temp. Windchill Dew Point Humidity Pressure Visibility Wind Dir Wind Speed Gust Speed Precip Events Conditions
12:00 AM 46 °F - 42 °F 79% 29.58 in 28 mi West 6.7 mph - -  
12:20 AM 44.6 °F 40.7 °F 41.0 °F 87% 29.56 in 6.2 mi West 6.9 mph - N/A   Partly Cloudy
12:50 AM 44.6 °F 40.7 °F 41.0 °F 87% 29.56 in 6.2 mi West 6.9 mph - N/A   Unknown
1:00 AM 44 °F - 41 °F 84% 29.59 in 28 mi West 6.7 mph - -  
1:20 AM 44.6 °F 41.4 °F 41.0 °F 87% 29.56 in 6.2 mi West 5.8 mph - N/A   Unknown
1:50 AM 44.6 °F 40.7 °F 39.2 °F 81% 29.56 in 6.2 mi West 6.9 mph - N/A   Unknown
2:00 AM 44 °F - 39 °F 78% 29.60 in 28 mi West 8.9 mph - -  
2:20 AM 42.8 °F 37.0 °F 39.2 °F 87% 29.59 in 6.2 mi West 10.4 mph - N/A   Unknown
2:50 AM 42.8 °F 37.5 °F 37.4 °F 81% 29.59 in 6.2 mi West 9.2 mph - N/A   Unknown
3:00 AM 43 °F - 38 °F 77% 29.61 in 28 mi West 8.9 mph - -  
3:20 AM 44.6 °F 39.7 °F 37.4 °F 76% 29.59 in 6.2 mi West 9.2 mph - N/A   Unknown
3:50 AM 44.6 °F 41.4 °F 37.4 °F 76% 29.59 in 6.2 mi West 5.8 mph - N/A   Unknown
4:00 AM 44 °F - 38 °F 71% 29.62 in 28 mi West 6.7 mph - -  
4:20 AM 42.8 °F 38.0 °F 37.4 °F 81% 29.59 in 6.2 mi West 8.1 mph - N/A   Unknown
4:50 AM 42.8 °F 38.0 °F 37.4 °F 81% 29.59 in 6.2 mi West 8.1 mph - N/A   Unknown
5:20 AM 39.2 °F - 35.6 °F 87% 29.59 in - Variable 1.2 mph - N/A   Clear
5:50 AM 41.0 °F 37.1 °F 37.4 °F 87% 29.62 in - West 5.8 mph - N/A   Clear
6:00 AM 41 °F - 37 °F 80% 29.63 in 47 mi West 6.7 mph - -   Scattered Clouds
6:20 AM 41.0 °F 39.0 °F 37.4 °F 87% 29.62 in - NW 3.5 mph - N/A   Clear
6:50 AM 41.0 °F 39.0 °F 37.4 °F 87% 29.62 in - West 3.5 mph - N/A   Clear
7:00 AM 42 °F - 37 °F 76% 29.63 in 47 mi West 2.2 mph - -   Scattered Clouds
7:20 AM 42.8 °F 38.0 °F 37.4 °F 81% 29.62 in - West 8.1 mph - N/A   Clear
7:50 AM 44.6 °F 40.7 °F 37.4 °F 76% 29.62 in - West 6.9 mph - N/A   Clear
8:00 AM 45 °F - 38 °F 68% 29.64 in 47 mi West 8.9 mph - -  
8:20 AM 46.4 °F 42.4 °F 37.4 °F 71% 29.62 in - West 8.1 mph - N/A   Clear
8:50 AM 46.4 °F 41.5 °F 39.2 °F 76% 29.62 in - West 10.4 mph - N/A   Clear
9:00 AM 47 °F - 39 °F 64% 29.64 in 47 mi West 11.2 mph - -   Clear
9:20 AM 48.2 °F - 39.2 °F 71% 29.62 in - West 10.4 mph - N/A   Clear
10:00 AM 50 °F - 39 °F 56% 29.64 in 47 mi West 8.9 mph - -   Clear
10:20 AM 50.0 °F - 39.2 °F 66% 29.62 in - WNW 8.1 mph - N/A   Clear
10:50 AM 51.8 °F - 39.2 °F 62% 29.62 in - West 6.9 mph - N/A   Clear
11:00 AM 53 °F - 40 °F 50% 29.64 in 47 mi WNW 4.5 mph - -   Clear
11:20 AM 53.6 °F - 39.2 °F 58% 29.62 in - SW 4.6 mph - N/A   Clear
11:50 AM 55.4 °F - 39.2 °F 54% 29.62 in 6.2 mi SW 8.1 mph - N/A   Unknown
12:00 PM 55 °F - 39 °F 44% 29.64 in 37 mi SW 6.7 mph - -   Clear
12:20 PM 55.4 °F - 41.0 °F 58% 29.62 in - SW 6.9 mph - N/A   Clear
12:50 PM 55.4 °F - 41.0 °F 58% 29.62 in - WSW 6.9 mph - N/A   Clear
1:00 PM 56 °F - 40 °F 43% 29.64 in 40 mi WSW 6.7 mph - -   Clear
1:20 PM 55.4 °F - 39.2 °F 54% 29.62 in - West 6.9 mph - N/A   Clear
1:50 PM 55.4 °F - 41.0 °F 58% 29.62 in - SW 5.8 mph - N/A   Clear
2:00 PM 55 °F - 42 °F 51% 29.64 in 37 mi SSW 4.5 mph - -  
2:20 PM 55.4 °F - 41.0 °F 58% 29.62 in - SSW 5.8 mph - N/A   Clear
2:50 PM 57.2 °F - 42.8 °F 59% 29.62 in - SSW 8.1 mph - N/A   Clear
3:00 PM 57 °F - 42 °F 46% 29.64 in 37 mi SW 6.7 mph - -   Scattered Clouds
3:20 PM 57.2 °F - 41.0 °F 55% 29.62 in - WSW 5.8 mph - N/A   Clear
3:50 PM 55.4 °F - 41.0 °F 58% 29.62 in - SSW 5.8 mph - N/A   Clear
4:20 PM 57.2 °F - 41.0 °F 55% 29.62 in - SW 5.8 mph - N/A   Clear